, OR

(GMT )
Tillamook

Weather History for KTMK - February, 2013

Change the Weather History Date:

Wednesday, February 6, 2013

  Actual Average Record
Temperature  
Mean Temperature 46 °F -  
Max Temperature 50 °F - - ()
Min Temperature 42 °F - - ()
Degree Days  
Heating Degree Days 19    
Moisture  
Dew Point 43 °F    
Average Humidity 83    
Maximum Humidity 93    
Minimum Humidity 71    
Precipitation  
Precipitation 0.41 in - - ()
Sea Level Pressure  
Sea Level Pressure 30.00 in    
Wind  
Wind Speed 7 mph (SSE)    
Max Wind Speed 16 mph    
Max Gust Speed 25 mph    
Visibility 9 miles    
Events Rain    
Averages and records for this station are not official NWS values.
T = Trace of Precipitation, MM = Missing Value Source: NWS Daily Summary

Daily Weather History Graph

Daily Weather History Graph

Search for Another Location

Airport or City:

Trip Planner

Search our weather history database for the weather conditions in past years. The results will help you decide how hot, cold, wet, or windy it might be!

Date:

Astronomy

Feb. 06, 2013 Rise Set
Actual Time 8:29 AM MST 6:30 PM MST
Civil Twilight 7:58 AM MST 7:01 PM MST
Nautical Twilight 7:23 AM MST 7:36 PM MST
Astronomical Twilight 6:48 AM MST 8:10 PM MST
Moon 5:24 AM MST (2/6) 2:48 PM MST (2/6)
Length of Visible Light 11h 02m
Length of Day
10h 00m
Waning Crescent, 16% of the Moon is Illuminated
Feb 6
Waning Crescent
Feb 10
New
Feb 17
First Quarter
Feb 25
Full
Mar 4
Last Quarter

Hourly Weather History & Observations

Time (MST) Temp. Windchill Dew Point Humidity Pressure Visibility Wind Dir Wind Speed Gust Speed Precip Events Conditions
12:15 AM 48.2 °F - 44.6 °F 87% 30.04 in 10.0 mi SSW 5.8 mph - N/A   Overcast
12:35 AM 48.2 °F - 44.6 °F 87% 30.04 in 10.0 mi SSE 6.9 mph - N/A   Overcast
12:55 AM 48.2 °F - 44.6 °F 87% 30.05 in 7.0 mi SSW 9.2 mph - 0.01 in Rain Light Rain
1:15 AM 48.2 °F - 44.6 °F 87% 30.05 in 7.0 mi SSW 9.2 mph - N/A Rain Light Rain
1:35 AM 48.2 °F - 44.6 °F 87% 30.06 in 10.0 mi SSW 8.1 mph - N/A   Overcast
1:55 AM 48.2 °F - 42.8 °F 82% 30.07 in 10.0 mi SSW 9.2 mph - N/A   Overcast
2:15 AM 48.2 °F - 42.8 °F 82% 30.08 in 10.0 mi South 6.9 mph - N/A   Overcast
2:35 AM 48.2 °F - 42.8 °F 82% 30.07 in 10.0 mi South 4.6 mph - N/A   Overcast
2:55 AM 48.2 °F - 44.6 °F 87% 30.07 in 7.0 mi South 6.9 mph - N/A   Drizzle
3:15 AM 48.2 °F - 42.8 °F 82% 30.07 in 10.0 mi South 4.6 mph - N/A   Overcast
3:35 AM 46.4 °F 42.9 °F 42.8 °F 87% 30.07 in 7.0 mi South 6.9 mph - 0.01 in Rain Light Rain
3:55 AM 46.4 °F 41.9 °F 42.8 °F 87% 30.08 in 5.0 mi SW 9.2 mph - 0.03 in Rain Light Rain
4:15 AM 46.4 °F 42.9 °F 42.8 °F 87% 30.08 in 10.0 mi SSW 6.9 mph - N/A   Mostly Cloudy
4:35 AM 46.4 °F 44.3 °F 42.8 °F 87% 30.08 in 10.0 mi South 4.6 mph - N/A   Overcast
4:55 AM 46.4 °F 44.3 °F 42.8 °F 87% 30.08 in 10.0 mi South 4.6 mph - N/A   Mostly Cloudy
5:15 AM 44.6 °F 41.4 °F 41.0 °F 87% 30.08 in 10.0 mi SSE 5.8 mph - N/A   Mostly Cloudy
5:35 AM 44.6 °F - 42.8 °F 93% 30.08 in 10.0 mi Calm Calm - N/A   Mostly Cloudy
5:55 AM 46.4 °F - 42.8 °F 87% 30.08 in 10.0 mi Calm Calm - N/A   Overcast
6:15 AM 44.6 °F - 41.0 °F 87% 30.08 in 10.0 mi Calm Calm - N/A   Overcast
6:35 AM 44.6 °F - 42.8 °F 93% 30.07 in 10.0 mi Calm Calm - N/A   Overcast
6:55 AM 44.6 °F - 42.8 °F 93% 30.07 in 10.0 mi Calm Calm - N/A   Overcast
7:15 AM 44.6 °F - 42.8 °F 93% 30.07 in 7.0 mi Calm Calm - N/A Rain Light Rain
7:35 AM 44.6 °F 41.4 °F 42.8 °F 93% 30.07 in 4.0 mi SE 5.8 mph - 0.02 in Rain Rain
7:55 AM 44.6 °F 42.2 °F 42.8 °F 93% 30.07 in 10.0 mi SE 4.6 mph - 0.02 in   Overcast
8:15 AM 44.6 °F 43.1 °F 42.8 °F 93% 30.07 in 10.0 mi SE 3.5 mph - N/A   Scattered Clouds
8:35 AM 44.6 °F 42.2 °F 42.8 °F 93% 30.07 in 10.0 mi SE 4.6 mph - N/A   Mostly Cloudy
8:55 AM 44.6 °F 43.1 °F 42.8 °F 93% 30.07 in 10.0 mi ESE 3.5 mph - N/A   Mostly Cloudy
9:35 AM 44.6 °F 42.2 °F 42.8 °F 93% 30.08 in 5.0 mi SE 4.6 mph - 0.01 in Rain Light Rain
9:55 AM 46.4 °F 43.5 °F 44.6 °F 93% 30.08 in 7.0 mi SE 5.8 mph - 0.01 in   Overcast
10:15 AM 46.4 °F 44.3 °F 42.8 °F 87% 30.07 in 7.0 mi SE 4.6 mph - N/A   Overcast
10:35 AM 48.2 °F - 44.6 °F 87% 30.07 in 10.0 mi ESE 5.8 mph - N/A   Overcast
10:55 AM 50.0 °F - 42.8 °F 76% 30.06 in 10.0 mi SE 4.6 mph - N/A   Overcast
11:15 AM 50.0 °F - 42.8 °F 76% 30.06 in 10.0 mi SE 6.9 mph - N/A   Overcast
11:35 AM 50.0 °F - 44.6 °F 82% 30.06 in 10.0 mi SSE 6.9 mph - N/A   Overcast
11:55 AM 50.0 °F - 44.6 °F 82% 30.05 in 10.0 mi SSE 8.1 mph - N/A   Mostly Cloudy
12:15 PM 50.0 °F - 44.6 °F 82% 30.05 in 10.0 mi SSE 9.2 mph - N/A   Overcast
12:35 PM 50.0 °F - 44.6 °F 82% 30.04 in 10.0 mi South 8.1 mph - N/A   Overcast
12:55 PM 50.0 °F - 44.6 °F 82% 30.03 in 7.0 mi South 10.4 mph 17.3 mph N/A   Drizzle
1:15 PM 48.2 °F - 44.6 °F 87% 30.03 in 4.0 mi South 10.4 mph - N/A Rain Light Rain
1:35 PM 48.2 °F - 44.6 °F 87% 30.02 in 5.0 mi South 8.1 mph - 0.01 in Rain Light Rain
1:55 PM 48.2 °F - 44.6 °F 87% 30.02 in 3.0 mi South 9.2 mph - 0.02 in Rain Rain
2:15 PM 50.0 °F - 44.6 °F 82% 30.00 in 10.0 mi SSE 6.9 mph 17.3 mph N/A   Mostly Cloudy
2:35 PM 50.0 °F - 44.6 °F 82% 29.99 in 10.0 mi SSE 4.6 mph - N/A   Overcast
2:55 PM 50.0 °F - 42.8 °F 76% 29.98 in 10.0 mi South 8.1 mph - N/A   Overcast
3:15 PM 50.0 °F - 42.8 °F 76% 29.97 in 10.0 mi South 9.2 mph 17.3 mph N/A   Overcast
3:55 PM 50.0 °F - 42.8 °F 76% 29.96 in 10.0 mi SSE 10.4 mph - N/A   Overcast
4:15 PM 50.0 °F - 42.8 °F 76% 29.95 in 10.0 mi SSE 8.1 mph - N/A Rain Rain
4:35 PM 50.0 °F - 42.8 °F 76% 29.95 in 7.0 mi South 11.5 mph 20.7 mph N/A   Drizzle
4:55 PM 50.0 °F - 42.8 °F 76% 29.94 in 10.0 mi South 8.1 mph 18.4 mph N/A Rain Light Rain
5:15 PM 50.0 °F - 42.8 °F 76% 29.93 in 10.0 mi SSE 9.2 mph - N/A   Overcast
5:35 PM 50.0 °F - 42.8 °F 76% 29.93 in 10.0 mi South 9.2 mph - N/A Rain Rain
5:55 PM 48.2 °F - 42.8 °F 82% 29.92 in 10.0 mi SSE 10.4 mph 16.1 mph 0.01 in   Overcast
6:15 PM 50.0 °F - 42.8 °F 76% 29.91 in 10.0 mi South 12.7 mph 18.4 mph N/A   Overcast
6:35 PM 50.0 °F - 42.8 °F 76% 29.89 in 10.0 mi SE 10.4 mph 18.4 mph N/A   Overcast
6:55 PM 50.0 °F - 41.0 °F 71% 29.89 in 10.0 mi SSE 9.2 mph 18.4 mph N/A   Overcast
7:15 PM 50.0 °F - 41.0 °F 71% 29.88 in 10.0 mi SSE 9.2 mph - N/A   Overcast
7:35 PM 50.0 °F - 41.0 °F 71% 29.86 in 10.0 mi SSE 10.4 mph - N/A   Overcast
7:55 PM 50.0 °F - 41.0 °F 71% 29.86 in 10.0 mi SSE 8.1 mph - N/A   Overcast
8:15 PM 50.0 °F - 41.0 °F 71% 29.84 in 10.0 mi SE 9.2 mph - N/A   Overcast
8:35 PM 50.0 °F - 41.0 °F 71% 29.83 in 10.0 mi SE 13.8 mph 17.3 mph N/A   Overcast
8:55 PM 48.2 °F - 41.0 °F 76% 29.83 in 10.0 mi SE 9.2 mph - N/A Rain Light Rain
9:15 PM 48.2 °F - 42.8 °F 82% 29.82 in 10.0 mi SE 4.6 mph - 0.01 in Rain Rain
9:35 PM 46.4 °F 44.3 °F 42.8 °F 87% 29.82 in 7.0 mi South 4.6 mph - 0.04 in Rain Rain
9:55 PM 46.4 °F 42.9 °F 42.8 °F 87% 29.83 in 7.0 mi WSW 6.9 mph - 0.09 in Rain Rain
10:15 PM 44.6 °F 37.4 °F 39.2 °F 81% 29.86 in 4.0 mi SW 16.1 mph 25.3 mph 0.06 in Rain Rain
10:35 PM 42.8 °F 37.0 °F 39.2 °F 87% 29.88 in 4.0 mi SSW 10.4 mph - 0.11 in Rain Rain
10:55 PM 42.8 °F 35.8 °F 39.2 °F 87% 29.89 in 5.0 mi South 13.8 mph 18.4 mph 0.15 in Rain Rain
11:35 PM 42.8 °F 39.3 °F 39.2 °F 87% 29.88 in 10.0 mi East 5.8 mph - 0.06 in   Overcast
11:55 PM 42.8 °F 41.1 °F 39.2 °F 87% 29.89 in 7.0 mi SE 3.5 mph - 0.07 in Rain Light Rain